Location: Unspecified
(51.0950°N, 12.9690°E)
Time: 17:21:00
(UTC+00:00)

Lacrosse 5 - Pass Details

Date: 28 October 2021
Orbit: 714 x 724 km, 57.0° (Epoch: 28 August)

Event Time Altitude Azimuth Distance (km) Brightness Sun altitude
Rises 18:55:24 0° 216° (SW) 3,128 5.4 -29.6°
Reaches altitude 10° 18:57:50 10° 211° (SSW) 2,210 4.5 -29.9°
Enters shadow 18:58:38 14° 208° (SSW) 1,919 4.1 -30.1°
